Location: ??????????
(54.8537°N, 38.8755°E)
Time: 22:47:23
(UTC+00:00)

A-11 Canister half - Visible Passes

Search period start: 11 September 2024 00:00
Search period end: 21 September 2024 00:00
Orbit: 1515 x 1684 km, 47.2° (Epoch: 10 September)

Date Brightness Start Highest point End Pass type
(mag) Time Alt. Az. Time Alt. Az. Time Alt. Az.
11 Sep 9.2 18:03:01 10° SW 18:11:38 45° SSE 18:16:51 24° ESE visible
11 Sep 8.9 20:06:33 10° WSW 20:15:01 54° SSW 20:15:01 54° SSW visible
11 Sep 10.3 22:10:50 10° W 22:13:10 19° W 22:13:10 19° W visible
12 Sep 9.2 17:40:08 10° SW 17:48:43 44° SSE 17:54:47 20° E visible
12 Sep 8.9 19:43:37 10° WSW 19:52:31 55° S 19:52:56 54° S visible
12 Sep 10.1 21:47:52 10° W 21:51:06 23° WSW 21:51:06 23° WSW visible
13 Sep 9.3 17:17:16 10° SW 17:25:49 43° SSE 17:32:42 16° E visible
13 Sep 8.9 19:20:40 10° WSW 19:29:35 55° S 19:30:52 51° SSE visible
13 Sep 10.0 21:24:55 10° W 21:29:01 27° WSW 21:29:01 27° WSW visible
14 Sep 9.4 16:54:24 10° SW 17:02:54 41° SSE 17:10:37 13° E visible
14 Sep 9.0 18:57:44 10° WSW 19:06:40 55° S 19:08:46 46° SE visible
14 Sep 9.8 21:01:56 10° W 21:06:56 31° WSW 21:06:56 31° WSW visible
15 Sep 9.4 16:31:33 10° SW 16:40:00 40° SSE 16:48:22 10° E visible
15 Sep 9.0 18:34:47 10° WSW 18:43:44 55° S 18:46:42 41° SE visible
15 Sep 9.6 20:38:59 10° W 20:44:51 36° WSW 20:44:51 36° WSW visible
16 Sep 9.5 16:08:41 10° SW 16:17:06 39° SSE 16:25:24 10° E visible
16 Sep 9.0 18:11:51 10° WSW 18:20:48 54° S 18:24:37 35° ESE visible
16 Sep 9.4 20:16:01 10° W 20:22:46 41° SW 20:22:46 41° SW visible
17 Sep 9.1 17:48:54 10° WSW 17:57:52 54° S 18:02:32 30° ESE visible
17 Sep 9.3 19:53:03 10° W 20:00:42 45° SW 20:00:42 45° SW visible
17 Sep 10.7 21:58:01 10° W 21:58:52 12° W 21:58:52 12° W visible
18 Sep 9.1 17:25:58 10° WSW 17:34:56 54° S 17:40:28 25° ESE visible
18 Sep 9.2 19:30:06 10° W 19:38:38 47° SSW 19:38:38 47° SSW visible
18 Sep 10.6 21:34:58 10° W 21:36:48 15° W 21:36:48 15° W visible
19 Sep 9.2 17:03:02 10° WSW 17:12:00 53° S 17:18:25 20° ESE visible
19 Sep 9.1 19:07:08 10° W 19:15:53 48° SSW 19:16:35 47° S visible
19 Sep 10.4 21:11:56 10° W 21:14:45 18° WSW 21:14:45 18° WSW visible
20 Sep 9.2 16:40:06 10° WSW 16:49:05 53° S 16:56:22 16° ESE visible
20 Sep 9.1 18:44:10 10° W 18:52:57 49° SSW 18:54:32 45° SSE visible
20 Sep 10.3 20:48:55 10° W 20:52:42 22° WSW 20:52:42 22° WSW visible
